SCP
0 0 0 0 0 0 0 1 1 1 1 1 1 1 1 1 1 0 0 0 1 1 1 1 1 1 0 0 1 1 1 1 1 1 1 1 1 1 1 1 1 1 1
0 0 0 0 0 0 0 1 1 1 1 1 1 1 1 0 0 0 0 0 0 0 0 1 1 1 1 0 1 1 1 1 1 1 1 1 1 1 1 1 1 1 1
0 0 0 0 0 0 0 0 1 1 1 1 0 0 0 0 0 0 0 0 0 0 0 0 0 0 0 0 0 1 1 1 1 1 1 1 1 1 1 1 1 1 1
0 0 0 0 0 0 0 0 0 0 0 0 0 0 0 0 0 0 0 0 0 0 0 0 0 0 0 1 1 0 1 1 1 1 1 1 1 1 1 1 1 1 1
0 0 0 0 0 0 0 0 0 0 0 0 0 0 0 0 0 0 0 0 0 0 0 0 0 0 1 1 1 1 1 1 1 1 1 1 1 1 1 1 1 1 1
0 0 0 0 0 0 0 0 0 0 0 0 0 0 0 0 0 0 0 0 0 0 0 0 0 0 0 1 1 1 1 1 1 1 1 1 1 1 1 1 1 1 1
0 0 0 0 0 0 0 0 0 0 0 0 0 0 0 0 0 0 0 0 0 0 0 0 0 0 0 0 1 1 1 1 1 1 1 1 1 1 1 1 1 1 1
0 0 0 0 0 0 0 0 0 0 0 0 0 0 0 0 0 0 0 0 0 0 0 0 0 0 0 0 0 0 0 0 1 1 1 2 2 2 1 1 1 1 1
0 0 0 0 0 0 0 0 0 0 0 0 0 0 0 0 0 0 0 0 0 0 0 0 0 0 0 0 0 0 0 0 1 1 1 2 2 2 2 1 1 1 1
0 0 0 0 0 0 0 0 0 0 0 0 0 0 0 0 0 0 0 0 0 0 0 0 0 0 0 0 0 0 0 0 0 1 1 1 1 2 2 1 1 1 1
0 0 0 0 0 0 0 0 0 0 0 0 0 0 0 0 0 0 0 0 0 0 0 0 0 0 0 0 0 0 0 0 0 0 1 1 1 1 2 2 2 1 1
0 0 0 0 0 0 0 0 0 0 0 0 0 0 0 0 0 0 0 0 0 0 0 0 0 0 0 0 0 0 0 0 0 0 0 1 1 1 1 2 2 1 1
0 0 0 0 0 0 0 0 0 0 0 0 0 0 0 0 0 0 0 0 0 0 0 0 0 0 0 0 0 0 0 0 0 0 0 0 1 1 1 1 1 2 2
0 0 0 0 0 0 0 0 0 0 0 0 0 0 0 0 0 0 0 0 0 0 0 0 0 0 0 0 0 0 0 0 0 0 0 0 0 0 0 1 1 1 1
0 0 0 0 0 0 0 0 0 0 0 0 0 0 0 0 0 0 0 0 0 0 0 0 0 0 0 0 0 0 0 0 0 0 0 0 0 0 0 0 1 1 1
0 0 0 0 0 0 0 0 0 0 0 0 0 0 0 0 0 0 0 0 0 0 0 0 0 0 0 0 0 0 0 0 0 0 0 0 0 0 0 0 0 0 0
0 0 0 0 0 0 0 0 0 0 0 0 0 0 0 0 0 0 0 0 0 0 0 0 0 0 0 0 0 0 0 0 0 0 0 0 0 0 0 0 0 0 0
0 0 0 0 0 0 0 0 0 0 0 0 0 0 0 0 0 0 0 0 0 0 0 0 0 0 0 0 0 0 0 0 0 0 0 0 0 0 0 0 0 0 0
0 0 0 0 0 0 0 0 0 0 0 0 0 0 0 0 0 0 0 0 0 0 0 0 0 0 0 0 0 0 0 0 0 0 0 0 0 0 0 0 0 0 0
0 0 0 0 0 0 0 0 0 0 0 0 0 0 0 0 0 0 0 0 0 0 0 0 0 0 0 0 0 0 0 0 0 0 0 0 0 0 0 0 0 0 0
0 0 0 0 0 0 0 0 0 0 0 0 0 0 0 0 0 0 0 0 0 0 0 0 0 0 0 0 0 0 0 0 0 0 0 0 0 0 0 0 0 0 0
0 0 0 0 0 0 0 0 0 0 0 0 0 0 0 0 0 0 0 0 0 0 0 0 0 0 0 0 0 0 0 0 0 0 0 0 0 0 0 0 0 0 0
0 0 0 0 0 0 0 0 0 0 0 0 0 0 0 0 0 0 0 0 0 0 0 0 0 0 0 0 0 0 0 0 0 0 0 0 0 0 0 0 0 0 0
0 0 0 0 0 0 0 0 0 0 0 0 0 0 0 0 0 0 0 0 0 0 0 0 0 0 0 0 0 0 0 0 0 0 0 0 0 0 0 0 0 0 0
0 0 0 0 0 0 0 0 0 0 0 0 0 0 0 0 0 0 0 0 0 0 0 0 0 0 0 0 0 0 0 0 0 0 0 0 0 0 0 0 0 0 0
0 0 0 0 0 0 0 0 0 0 0 0 0 0 0 0 0 0 0 0 0 0 0 0 0 0 0 0 0 0 0 0 0 0 0 0 0 0 0 0 0 0 0
Wind_Speed
3 3 2 3 3 3 3 3 4 4 5 5 5 5 5 5 5 5 4 10 10 10 9 10 10 9 9 9 9 9 9 8 8 8 8 8 7 7 7 7 6 6 6
2 3 3 3 3 3 3 3 4 4 4 4 5 5 5 4 4 5 4 6 10 10 10 10 10 10 10 9 9 9 8 8 8 8 7 7 7 7 7 7 6 6 6
3 3 3 2 2 3 3 4 4 4 4 4 5 4 4 4 4 5 5 4 5 8 10 10 10 10 10 9 9 8 8 7 7 7 7 7 7 7 7 7 7 7 6
3 3 3 2 2 3 3 3 3 4 4 3 3 3 3 3 4 4 4 4 4 4 6 10 10 9 9 9 8 8 7 7 7 7 6 6 6 6 7 7 7 7 7
3 3 2 2 3 3 3 3 3 2 3 3 3 3 3 3 3 4 4 4 4 4 4 6 9 9 9 9 8 7 7 6 6 6 6 5 5 6 6 6 6 6 7
3 3 2 2 3 3 3 3 3 3 3 2 4 4 3 3 3 3 3 3 3 4 4 4 4 6 9 8 8 8 7 7 6 5 5 5 5 5 5 5 5 5 5
3 3 2 3 3 3 3 3 3 4 2 2 3 3 3 3 3 3 3 3 3 3 4 4 3 3 4 8 8 7 7 7 6 6 5 5 5 4 4 4 5 5 5
3 3 3 3 3 3 3 3 3 2 1 1 2 2 2 3 3 3 2 3 3 3 3 3 3 3 3 3 5 8 7 7 6 6 5 5 5 4 4 4 4 5 5
2 3 4 3 3 3 3 3 3 4 2 1 1 2 2 1 1 2 2 2 3 2 2 2 3 3 3 3 3 5 7 6 6 6 6 5 4 4 4 4 4 4 4
2 3 3 4 3 3 3 3 3 3 3 2 1 1 1 3 2 1 2 2 2 2 2 2 2 2 2 2 3 5 6 6 6 5 5 5 5 5 4 3 3 3 4
1 2 3 3 3 3 3 3 3 3 2 3 2 2 1 1 1 2 1 2 2 2 1 1 1 1 2 2 2 2 5 5 5 5 5 5 5 5 5 4 3 3 3
1 2 3 3 3 3 3 3 3 4 3 2 2 2 3 2 2 2 2 1 1 2 1 1 1 1 1 1 2 2 3 4 4 4 5 5 5 4 4 3 3 3 3
2 3 3 3 3 3 4 3 3 3 3 3 3 2 2 2 2 3 2 1 1 2 2 1 1 1 1 1 1 2 2 2 3 3 3 4 4 4 3 3 3 2 3
3 3 3 3 3 3 4 4 3 3 3 3 3 3 2 2 2 3 3 3 1 1 2 3 2 1 1 1 1 2 1 1 2 2 2 3 3 3 3 3 2 2 2
2 2 2 3 3 3 4 4 3 3 3 3 3 3 2 2 2 2 3 3 4 2 2 3 2 2 1 1 1 1 1 1 1 1 2 2 2 2 2 3 3 3 3
2 2 2 3 3 3 3 3 3 3 3 3 3 3 2 2 2 2 2 2 3 3 2 2 2 2 1 1 2 1 1 1 1 0 1 1 2 2 2 2 2 2 2
2 3 3 3 3 3 3 3 3 3 3 3 2 3 3 2 2 2 2 2 2 3 3 2 1 1 1 1 1 1 1 1 1 1 0 0 1 1 1 1 1 1 2
3 3 3 3 3 3 3 4 4 4 4 3 3 3 3 2 2 2 2 3 3 3 3 3 1 1 1 1 1 1 1 1 1 1 1 1 1 0 0 0 1 1 1
2 3 3 3 3 3 4 4 4 4 4 4 4 4 3 3 2 2 3 3 2 2 2 2 2 1 1 0 0 1 0 1 1 1 2 2 2 1 1 1 1 0 0
2 3 3 4 4 4 4 4 4 4 4 4 4 4 4 4 4 4 3 3 2 2 2 2 1 1 1 1 1 1 1 1 1 1 1 1 1 1 2 2 2 2 2
2 2 3 3 3 3 4 4 4 4 4 4 3 4 4 5 6 5 3 4 4 3 2 2 2 1 1 1 2 2 1 1 1 1 0 1 0 0 1 2 3 3 3
1 1 2 3 3 3 4 5 5 4 4 5 4 4 4 4 5 6 7 6 7 5 5 3 3 3 3 3 2 2 2 1 2 1 1 1 0 1 1 1 2 3 3
1 2 2 2 3 4 5 6 6 4 4 4 5 4 3 4 5 3 5 6 6 6 7 5 5 5 4 5 4 3 3 3 3 2 1 1 1 1 2 2 3 3 3
2 2 2 3 3 4 5 5 6 4 3 4 4 5 5 4 4 5 4 3 3 4 5 5 5 5 5 4 5 4 4 2 1 1 2 2 1 1 1 1 3 3 4
2 2 2 3 3 4 4 4 4 3 3 4 4 4 5 5 7 7 4 4 2 2 3 5 6 5 5 5 5 3 2 2 1 2 2 2 1 1 1 1 2 2 2
3 2 2 2 3 4 4 4 3 2 3 3 3 3 6 6 7 7 5 5 4 4 2 2 2 3 3 4 5 5 5 4 2 2 2 3 2 1 1 1 1 1 1
Wind_Direction
75 65 57 56 61 67 77 81 82 78 71 64 60 62 56 49 44 40 35 48 54 58 63 65 65 66 67 66 65 63 60 59 57 59 60 58 60 63 63 62 64 68 71
96 89 76 68 66 74 81 85 84 81 71 67 59 53 53 50 46 43 38 37 43 50 56 59 60 62 65 65 61 57 57 56 55 55 57 59 60 61 62 62 61 63 63
102 100 95 85 78 81 85 87 80 77 75 67 58 48 46 43 46 42 39 35 30 40 50 56 55 56 57 59 61 57 56 53 53 54 55 58 60 61 64 64 61 61 63
106 105 103 98 94 88 86 91 86 85 75 69 60 45 40 37 41 42 43 38 33 29 36 47 50 49 50 52 55 56 57 56 55 56 56 59 64 65 65 63 61 59 60
116 115 112 104 104 96 90 95 78 87 91 82 73 54 38 35 31 40 40 36 36 34 30 37 41 42 47 49 51 53 54 53 54 57 59 63 67 67 65 66 65 63 59
127 120 117 110 109 102 89 90 93 75 80 85 76 56 36 29 32 33 31 33 33 35 34 34 31 28 35 42 43 46 45 44 45 51 59 63 69 69 64 63 66 66 60
136 135 129 121 121 121 123 116 105 94 76 75 73 43 21 30 37 29 27 36 35 31 36 34 31 26 18 26 29 36 35 36 40 44 55 69 73 70 61 65 70 67 60
156 155 145 143 140 126 124 127 120 110 89 74 104 90 24 1 7 21 23 36 30 28 33 32 29 27 17 10 13 25 25 29 35 41 55 66 72 70 60 66 67 66 61
164 158 156 148 148 144 153 156 147 139 143 85 87 131 135 204 321 347 11 24 22 29 18 15 24 16 15 9 360 13 19 24 31 39 50 57 62 64 70 66 60 62 65
180 170 162 158 157 154 159 171 159 149 144 151 100 70 133 152 143 335 335 353 13 19 3 6 7 2 5 360 1 14 18 21 26 32 43 53 56 56 63 58 51 72 71
190 178 169 163 167 168 172 171 158 158 157 160 160 148 110 79 115 148 263 317 344 334 336 332 335 339 351 353 337 7 18 19 25 28 34 42 47 48 46 49 52 71 77
213 191 176 176 178 176 181 182 173 170 172 167 167 162 162 163 175 164 190 242 282 295 309 306 295 304 315 336 337 9 18 17 20 23 26 29 30 31 30 35 45 62 69
218 210 186 186 186 188 186 177 172 183 181 180 183 188 187 187 165 158 155 182 236 291 308 299 269 272 275 307 315 338 358 16 14 20 20 23 24 25 25 27 28 47 62
214 204 193 195 196 190 187 177 176 192 185 192 200 193 188 197 176 170 165 155 154 307 298 277 289 253 261 259 274 307 321 6 15 19 20 31 32 28 28 19 25 39 46
212 193 192 198 201 193 185 173 183 194 186 198 206 201 199 207 192 187 174 165 162 194 261 260 264 266 254 242 250 251 273 296 4 29 37 44 38 31 36 26 31 33 33
198 181 186 189 192 196 189 180 187 195 189 208 205 196 207 210 191 187 186 184 176 173 216 242 237 253 258 252 241 219 235 263 286 354 38 50 54 47 53 47 44 35 30
187 188 192 192 191 193 187 180 193 190 194 212 214 202 214 199 189 189 178 176 182 169 201 252 243 255 230 244 287 289 234 230 260 248 307 1 50 42 63 57 46 33 31
199 195 188 187 196 196 187 185 193 192 191 201 209 199 217 205 199 196 186 192 195 190 185 217 239 234 232 225 233 254 258 219 222 242 234 242 241 231 151 139 88 35 25
206 197 188 193 202 202 195 196 194 197 201 205 202 201 210 191 211 212 199 201 203 196 181 184 212 219 251 215 184 287 303 308 255 248 245 240 235 239 250 235 206 220 300
205 205 201 205 207 208 205 203 198 200 204 209 209 209 209 205 212 211 206 205 192 178 169 170 192 207 229 225 161 193 300 310 299 313 303 283 240 245 267 259 239 230 240
217 213 201 211 212 211 211 203 200 202 206 214 218 217 219 220 221 212 205 195 179 175 173 175 189 188 210 190 207 197 205 288 293 252 294 320 317 312 283 275 254 238 233
230 217 212 211 217 226 224 210 201 204 206 208 218 225 227 229 230 228 226 208 187 180 184 182 194 201 220 210 191 182 175 169 267 249 165 275 124 240 266 257 252 238 235
213 223 233 223 228 236 229 219 212 202 205 210 214 218 230 229 223 219 230 227 217 209 193 180 190 210 209 204 180 187 196 197 216 215 160 256 241 251 262 266 249 236 232
200 221 233 232 236 247 240 226 219 208 208 219 219 216 217 226 216 199 196 198 214 219 216 205 204 217 217 200 187 191 194 186 218 242 177 220 239 246 278 282 275 245 230
214 223 223 222 230 254 254 236 220 203 211 227 229 224 215 218 221 203 186 190 213 248 242 218 214 215 211 197 173 143 149 154 216 239 192 189 214 239 287 286 280 265 241
231 229 239 237 236 249 261 248 217 198 210 230 238 236 228 219 216 203 192 188 205 227 212 191 200 218 215 205 196 185 180 178 188 228 203 180 187 166 264 281 289 283 265